Rbgn^[z[y[W
メイン
   新天体発見情報
     Comet C/2021 S1 (ATLAS)
投稿するにはまず登録を

スレッド表示 | 新しいものから 前のトピック | 次のトピック | 下へ
投稿者 スレッド
佐藤裕久
投稿日時: 2021-10-23 10:59
モデレータ
登録日: 2005-6-12
居住地: 日本
投稿: 2277
オンライン
Comet C/2021 S1 (ATLAS)

A. Fitzsimmons (天体物理学研究センター, クイーンズ大学, Belfast)の通報によると、9月27.6日
UT、ハワイ Haleakalaにある小惑星地球衝突最終警報システム Asteroid Terrestrial-impact Last 
Alert System (ATLAS)調査プログラムのコースに0.5-m f/2 Schmidt反射望遠鏡で得たCCD画像から
非恒星状でソフトな彗星と思われる天体を発見した。4".4のシーイングで6".0の半値全幅:FWHM)の
大きさで、明らかな尾はなかった。
小惑星センターのPCCP webpageに公表後、L. Buzzi (Varese, イタリア: 測定はA. Alettiと
彼, 9月28.1日UT、15秒露出150枚のスタック, 0.84-m f/3.5 反射望遠鏡, 光度18.8等の適度に集光
した8" のコマが見え、p.a. 315°に30"のまっすぐな尾がある)らCCD位置観測者によって彗星状と
観測された。

彗星機能の報告は次のとおり、

OC   Date        Reporter           Coma    Tail    PA          Exposures
204  2021-09-28  A. Aletti          8"      30"    315 
Z08  2021-09-29  E. Bryssinck       8"                           17x120s
H06  2021-09-29  N. Paul           11".5                         10x60s
L06  2021-09-30  P. Sicoli          7"      16"    345
G18  2021-09-30  A. Valvasori      10"                           38x120s
G00  2021-10-01  M. Jaeger         13"
I22  2021-10-01  F. D. Romanov      5"                           24x60s
G40  2021-10-02  B. Lutkenhoner     7"                           27x50s

発見位置は次のとおり、

     2021 UT             R.A. (2000) Decl.       Mag.
     Sept.27.57014    6 54 12.03   +57 38 49.2   17.8
          27.57425    6 54 12.11   +57 38 50.5   18.6
          27.57978    6 54 12.31   +57 38 50.8   18.4
          27.59031    6 54 12.77   +57 38 50.8   18.6

MPCの双曲線軌道要素、位置推算表は次のとおり、

Orbital elements:
    C/2021 S1 (ATLAS)                                                           
Epoch 2021 Dec. 12.0 TT = JDT 2459560.5                                         
T 2021 Dec. 26.64465 TT                                 Rudenko                 
q   6.2152911            (2000.0)            P               Q                  
z  -0.0037215      Peri.  141.91956     -0.06935164     -0.73303952             
 +/-0.0111329      Node   300.44457     +0.60774224     +0.50683272             
e   1.0231300      Incl.   51.70751     +0.79110032     -0.45362281             
From 72 observations 2021 Sept. 27-Oct. 2, mean residual 0".4.                  
                                                                                
    C/2021 S1 (ATLAS)                                                           
Epoch 2021 July 5.0 TT = JDT 2459400.5                                          
T 2021 Dec. 26.73921 TT                                 Rudenko                 
q   6.2152316            (2000.0)            P               Q                  
z  -0.0036265      Peri.  141.92915     -0.06944006     -0.73298403             
 +/-0.0111329      Node   300.44098     +0.60781257     +0.50679671             
e   1.0225396      Incl.   51.71031     +0.79103853     -0.45375269             
From 72 observations 2021 Sept. 27-Oct. 2, mean residual 0".4.                  
                                                                                
Ephemeris:
Date    TT    R. A. (2000) Decl.     Delta      r    Elong.  Phase   m1
2021 09 03    06 36 10.9 +57 23 29   6.5540  6.2666    69.2     8.7  19.1
...
2021 09 18    06 48 15.7 +57 31 10   6.3593  6.2541    79.5     9.1  19.0
...
2021 09 26    06 53 19.6 +57 37 25   6.2510  6.2481    85.2     9.2  18.9
...
2021 10 02    06 56 25.7 +57 43 01   6.1688  6.2440    89.7     9.2  18.9
2021 10 03    06 56 53.0 +57 44 01   6.1551  6.2433    90.4     9.2  18.9
2021 10 04    06 57 19.3 +57 45 02   6.1414  6.2427    91.2     9.2  18.9
...
2021 10 10    06 59 33.4 +57 51 29   6.0592  6.2389    95.7     9.2  18.9
...
2021 10 18    07 01 27.6 +58 00 37   5.9513  6.2343   101.9     9.0  18.8
...
2021 11 02    07 01 31.0 +58 17 12   5.7603  6.2270   113.8     8.4  18.7

(MPEC 2021-T21、CBET 5047)

スレッド表示 | 新しいものから 前のトピック | 次のトピック | トップ

投稿するにはまず登録を
 
© 1999 Tsutomu Seki.